Epoch,demod_status_bits,ebno,lock_status,signal_level,viterbi_ber
1663695530,C;S;V;F,11.0,0x00c000,-41.0,9.79e-5
1663695531,C;S;V;F,11.6,0x00c000,-40.5,4.34e-5
1663695532,C;S;V;F,11.1,0x00c000,-41.1,1.45e-4
1663695533,C;S;V;F,10.4,0x00c000,-41.3,9.82e-5
1663695534,C;S;V;F,12.0,0x00c000,-39.4,1.02e-4
1663695535,C;S;V;F,11.7,0x00c000,-40.0,4.64e-5
1663695536,C;S;V;F,11.0,0x00c000,-40.4,5.30e-5
1663695537,,12.2,0x00c000,-39.2,
1663695538,C;S;V;F,,,,2.22e-5
1663695539,,12.6,0x00c000,-40.9,
1663695540,C;S;V;F,11.0,0x00c000,-39.7,2.39e-5
1663695541,C;S;V;F,,0x00c000,-40.9,2.64e-5
1663695542,C;S;V;F,11.1,0x00c000,,2.73e-5
1663695543,C;S;V;F,11.9,0x00c000,-39.6,1.21e-5
1663695544,C;S;V;F,11.5,0x00c000,-40.4,6.20e-6
1663695545,C;S;V;F,12.3,0x00c000,-40.1,1.64e-5
1663695546,C;S;V;F,12.5,0x00c000,-39.7,1.42e-5
1663695547,C;S;V;F,12.4,0x00c000,-39.7,3.32e-6
1663695548,C;S;V;F,12.2,0x00c000,-39.4,1.66e-6
1663695549,C;S;V;F,12.3,0x00c000,-39.5,
1663695550,,,,,3.32e-6
1663695553,C;S;V;F,11.9,0x00c000,-40.4,1.40e-5
1663695554,C;S;V;F,12.1,0x00c000,-39.1,4.84e-6
1663695555,,11.7,0x00c000,-40.2,
1663695556,C;S;V;F,11.9,0x00c000,-40.2,2.11e-6
1663695557,C;S;V;F,12.5,0x00c000,-39.6,5.14e-6
1663695558,C;S;V;F,12.1,0x00c000,-39.8,4.99e-6
1663695559,C;S;V;F,,0x00c000,-39.4,1.81e-6
1663695560,C;S;V;F,12.7,0x00c000,-39.6,3.47e-6
1663695561,C;S;V;F,12.9,0x00c000,,1.51e-6
1663695562,C;S;V;F,13.1,0x00c000,-39.3,7.57e-7
1663695563,C;S;V;F,12.4,0x00c000,-39.4,3.03e-7
1663695564,C;S;V;F,12.4,0x00c000,-40.3,1.51e-6
1663695565,C;S;V;F,12.2,0x00c000,-40.0,4.38e-6
1663695566,C;S;V;F,12.6,0x00c000,-39.6,2.42e-6
1663695567,C;S;V;F,12.2,0x00c000,-40.0,1.51e-6
1663695568,C;S;V;F,12.5,0x00c000,-39.6,3.17e-6
1663695569,C;S;V;F,12.8,0x00c000,-39.8,1.66e-6
1663695570,C;S;V;F,12.7,0x00c000,-39.2,1.21e-6
1663695571,C;S;V;F,12.8,0x00c000,-39.6,
1663695572,,12.3,0x00c000,-39.6,6.06e-7
1663695573,C;S;V;F,12.6,0x00c000,-39.4,1.66e-6
1663695574,C;S;V;F,12.9,0x00c000,-39.3,6.06e-7
1663695575,C;S;V;F,13.1,0x00c000,-39.0,1.51e-7
1663695576,C;S;V;F,,0x00c000,-38.8,4.54e-7
1663695577,C;S;V;F,13.3,0x00c000,-39.3,1.51e-7
1663695578,C;S;V;F,13.1,0x00c000,-38.9,0.00e-0
1663695579,C;S;V;F,13.4,0x00c000,,0.00e-0
1663695580,C;S;V;F,13.3,0x00c000,-39.2,0.00e-0
1663695581,C;S;V;F,13.6,0x00c000,-38.9,1.51e-7
1663695582,C;S;V;F,13.6,0x00c000,-39.1,0.00e-0
1663695583,C;S;V;F,13.3,0x00c000,-39.1,0.00e-0
1663695584,C;S;V;F,13.4,0x00c000,-38.7,0.00e-0
1663695585,C;S;V;F,13.4,0x00c000,-38.9,0.00e-0
1663695586,C;S;V;F,13.6,0x00c000,-38.8,0.00e-0
1663695587,C;S;V;F,13.3,0x00c000,-38.8,0.00e-0
1663695588,C;S;V;F,14.4,0x00c000,-37.8,
1663695589,,13.3,0x00c000,-38.8,0.00e-0
1663695590,C;S;V;F,13.5,0x00c000,-39.0,0.00e-0
1663695591,C;S;V;F,13.2,0x00c000,-38.7,0.00e-0
1663695592,C;S;V;F,,0x00c000,-38.4,0.00e-0
1663695593,C;S;V;F,13.4,0x00c000,,1.51e-7
1663695594,C;S;V;F,13.7,0x00c000,-38.7,1.51e-7
1663695595,C;S;V;F,13.3,0x00c000,-39.1,0.00e-0
1663695596,C;S;V;F,13.6,0x00c000,-38.2,0.00e-0
1663695597,C;S;V;F,13.8,0x00c000,-38.9,1.51e-7
1663695598,C;S;V;F,13.4,0x00c000,-39.0,1.51e-7
1663695599,C;S;V;F,13.4,0x00c000,-39.1,0.00e-0
1663695600,C;S;V;F,13.3,0x00c000,-39.2,0.00e-0
1663695603,C;S;V;F,13.4,0x00c000,-39.1,4.54e-7
1663695604,C;S;V;F,13.2,0x00c000,-39.4,
1663695605,,13.5,0x00c000,-39.1,1.51e-7
1663695606,C;S;V;F,13.1,0x00c000,-39.2,0.00e-0
1663695607,C;S;V;F,13.2,0x00c000,-39.4,0.00e-0
1663695608,C;S;V;F,,0x00c000,-39.1,0.00e-0
1663695609,C;S;V;F,13.2,0x00c000,,0.00e-0
1663695610,C;S;V;F,13.7,0x00c000,-38.8,0.00e-0
1663695611,C;S;V;F,13.6,0x00c000,-38.8,0.00e-0
1663695612,C;S;V;F,13.8,0x00c000,-38.7,0.00e-0
1663695613,C;S;V;F,13.7,0x00c000,-38.8,0.00e-0
1663695614,C;S;V;F,13.6,0x00c000,-38.7,0.00e-0
1663695615,C;S;V;F,13.8,0x00c000,-38.6,0.00e-0
1663695616,C;S;V;F,13.8,0x00c000,-38.8,0.00e-0
1663695617,C;S;V;F,14.3,0x00c000,-38.1,0.00e-0
1663695618,C;S;V;F,13.7,0x00c000,-38.6,0.00e-0
1663695619,,14.2,0x00c000,-38.3,
1663695620,C;S;V;F,14.3,0x00c000,-38.0,0.00e-0
1663695621,C;S;V;F,14.4,0x00c000,-38.0,0.00e-0
1663695622,C;S;V;F,,0x00c000,-38.0,0.00e-0
1663695623,C;S;V;F,14.6,0x00c000,,0.00e-0
1663695624,C;S;V;F,14.3,0x00c000,-38.4,0.00e-0
1663695625,C;S;V;F,14.2,0x00c000,-37.6,0.00e-0
1663695626,C;S;V;F,14.7,0x00c000,-38.0,0.00e-0
1663695627,C;S;V;F,14.6,0x00c000,-38.0,0.00e-0
1663695628,,14.7,0x00c000,-37.9,
1663695629,C;S;V;F,,,,0.00e-0
1663695630,C;S;V;F,14.6,0x00c000,-37.8,0.00e-0
1663695631,C;S;V;F,15.0,0x00c000,-37.4,0.00e-0
1663695632,C;S;V;F,15.0,0x00c000,-37.9,0.00e-0
1663695633,C;S;V;F,14.8,0x00c000,-37.5,0.00e-0
1663695634,C;S;V;F,14.9,0x00c000,-37.8,0.00e-0
1663695635,C;S;V;F,14.7,0x00c000,-37.9,0.00e-0
1663695636,C;S;V;F,14.8,0x00c000,-37.9,0.00e-0
1663695637,,14.4,0x00c000,-38.0,
1663695638,C;S;V;F,14.8,0x00c000,-37.8,0.00e-0
1663695639,C;S;V;F,,0x00c000,-38.3,0.00e-0
1663695640,C;S;V;F,14.4,0x00c000,,0.00e-0
1663695641,C;S;V;F,14.8,0x00c000,-37.6,0.00e-0
1663695642,C;S;V;F,15.0,0x00c000,-37.7,0.00e-0
1663695643,C;S;V;F,14.9,0x00c000,-37.7,0.00e-0
1663695644,C;S;V;F,14.8,0x00c000,-37.6,0.00e-0
1663695645,C;S;V;F,14.8,0x00c000,-37.6,0.00e-0
1663695646,C;S;V;F,14.9,0x00c000,-37.6,0.00e-0
1663695647,C;S;V;F,14.8,0x00c000,-37.6,0.00e-0
1663695648,C;S;V;F,15.3,0x00c000,-37.2,
1663695649,C;S;V;F,15.2,0x00c000,-37.2,0.00e-0
1663695650,,15.5,0x00c000,-37.3,0.00e-0
1663695651,C;S;V;F,15.3,0x00c000,-37.1,0.00e-0
1663695652,C;S;V;F,,0x00c000,-37.0,0.00e-0
1663695653,C;S;V;F,15.4,0x00c000,-37.0,0.00e-0
1663695654,C;S;V;F,15.4,0x00c000,,0.00e-0
1663695655,C;S;V;F,15.6,0x00c000,-37.1,0.00e-0
1663695656,C;S;V;F,15.7,0x00c000,-36.7,0.00e-0
1663695657,C;S;V;F,15.5,0x00c000,-37.2,0.00e-0
1663695658,C;S;V;F,15.7,0x00c000,-36.6,0.00e-0
1663695659,C;S;V;F,15.8,0x00c000,-36.8,0.00e-0
1663695660,C;S;V;F,15.7,0x00c000,-36.8,0.00e-0
1663695661,C;S;V;F,15.5,0x00c000,-36.9,0.00e-0
1663695662,C;S;V;F,15.8,0x00c000,-37.1,
1663695663,C;S;V;F,15.5,0x00c000,-37.1,0.00e-0
1663695664,,,,,0.00e-0
1663695666,C;S;V;F,15.4,0x00c000,-37.3,0.00e-0
1663695667,C;S;V;F,15.2,0x00c000,-37.3,0.00e-0
1663695668,C;S;V;F,15.2,0x00c000,-37.3,0.00e-0
1663695669,C;S;V;F,15.1,0x00c000,-37.5,0.00e-0
1663695670,C;S;V;F,15.4,0x00c000,-37.2,0.00e-0
1663695671,C;S;V;F,15.1,0x00c000,-37.5,0.00e-0
1663695672,C;S;V;F,14.9,0x00c000,-37.8,
1663695673,,15.0,0x00c000,-37.8,0.00e-0
1663695674,C;S;V;F,15.0,0x00c000,-37.3,0.00e-0
1663695675,C;S;V;F,,0x00c000,-37.4,0.00e-0
1663695676,C;S;V;F,15.0,0x00c000,-37.9,0.00e-0
1663695677,C;S;V;F,14.9,0x00c000,-37.9,0.00e-0
1663695678,C;S;V;F,14.9,0x00c000,,0.00e-0
1663695679,C;S;V;F,15.1,0x00c000,-37.7,0.00e-0
1663695680,C;S;V;F,14.8,0x00c000,-37.8,0.00e-0
1663695681,C;S;V;F,15.0,0x00c000,-37.9,0.00e-0
1663695682,C;S;V;F,15.1,0x00c000,-37.7,0.00e-0
1663695683,C;S;V;F,15.1,0x00c000,-37.5,0.00e-0
1663695684,C;S;V;F,15.1,0x00c000,-37.5,0.00e-0
1663695685,C;S;V;F,14.9,0x00c000,-37.6,0.00e-0
1663695686,C;S;V;F,15.2,0x00c000,-37.5,
1663695687,,15.3,0x00c000,-37.5,0.00e-0
1663695688,C;S;V;F,15.3,0x00c000,-37.6,0.00e-0
1663695689,C;S;V;F,14.8,0x00c000,-37.9,0.00e-0
1663695690,C;S;V;F,,0x00c000,-37.9,0.00e-0
1663695691,C;S;V;F,15.0,0x00c000,-37.9,0.00e-0
1663695692,C;S;V;F,14.8,0x00c000,-37.9,0.00e-0
1663695693,C;S;V;F,14.6,0x00c000,,0.00e-0
1663695694,C;S;V;F,14.5,0x00c000,-38.1,0.00e-0
1663695695,C;S;V;F,14.9,0x00c000,-38.0,0.00e-0
1663695696,C;S;V;F,15.0,0x00c000,-37.7,0.00e-0
1663695697,C;S;V;F,15.0,0x00c000,-37.6,0.00e-0
1663695698,C;S;V;F,15.2,0x00c000,-37.5,0.00e-0
1663695699,C;S;V;F,15.4,0x00c000,-37.4,0.00e-0
1663695700,C;S;V;F,15.5,0x00c000,-37.1,0.00e-0
1663695701,C;S;V;F,15.3,0x00c000,-37.4,0.00e-0
1663695702,C;S;V;F,15.5,0x00c000,-37.1,0.00e-0
1663695703,,15.3,0x00c000,-37.5,
1663695704,C;S;V;F,15.3,0x00c000,-37.2,0.00e-0
1663695705,C;S;V;F,,0x00c000,-37.7,0.00e-0
1663695706,C;S;V;F,15.2,0x00c000,-37.8,0.00e-0
1663695707,C;S;V;F,15.4,0x00c000,,0.00e-0
1663695708,C;S;V;F,15.3,0x00c000,-37.8,0.00e-0
1663695709,C;S;V;F,15.3,0x00c000,-37.5,0.00e-0
1663695710,C;S;V;F,14.9,0x00c000,-37.4,0.00e-0
1663695711,C;S;V;F,15.2,0x00c000,-37.4,0.00e-0
1663695712,C;S;V;F,15.5,0x00c000,-37.2,0.00e-0
1663695713,C;S;V;F,15.8,0x00c000,-36.8,
1663695714,,16.0,0x00c000,-36.6,0.00e-0
1663695715,C;S;V;F,16.2,0x00c000,-36.5,0.00e-0
1663695716,C;S;V;F,16.3,0x00c000,-36.3,0.00e-0
1663695717,C;S;V;F,15.8,0x00c000,-36.8,0.00e-0
1663695718,C;S;V;F,,0x00c000,-36.8,0.00e-0
1663695719,C;S;V;F,15.8,0x00c000,,0.00e-0
1663695720,C;S;V;F,16.2,0x00c000,-36.4,0.00e-0
1663695721,C;S;V;F,16.5,0x00c000,-36.3,
1663695722,,16.7,0x00c000,-35.8,0.00e-0
1663695723,C;S;V;F,16.6,0x00c000,-35.7,0.00e-0
1663695724,C;S;V;F,,0x00c000,-35.5,0.00e-0
1663695725,C;S;V;F,16.9,0x00c000,-34.9,0.00e-0
1663695726,C;S;V;F,17.0,0x00c000,,0.00e-0
1663695728,,17.2,0x00c000,-35.2,
1663695729,C;S;V;F,,0x00c000,-35.5,0.00e-0
1663695730,C;S;V;F,17.1,0x00c000,-35.3,0.00e-0
1663695731,C;S;V;F,17.1,0x00c000,,0.00e-0
1663695732,C;S;V;F,16.9,0x00c000,-35.4,0.00e-0
1663695733,C;S;V;F,17.0,0x00c000,-35.1,0.00e-0
1663695734,C;S;V;F,17.2,0x00c000,-34.9,0.00e-0
1663695735,C;S;V;F,17.1,0x00c000,-35.2,0.00e-0
1663695736,C;S;V;F,16.9,0x00c000,-35.4,0.00e-0
1663695737,C;S;V;F,16.6,0x00c000,-35.9,0.00e-0
1663695738,C;S;V;F,16.6,0x00c000,-36.1,0.00e-0
1663695739,C;S;V;F,16.7,0x00c000,-35.7,0.00e-0
1663695740,C;S;V;F,16.7,0x00c000,-35.7,0.00e-0
1663695741,C;S;V;F,16.8,0x00c000,-35.2,
1663695742,,17.0,0x00c000,-35.1,0.00e-0
1663695743,C;S;V;F,16.7,0x00c000,-35.5,0.00e-0
1663695744,C;S;V;F,,0x00c000,-35.9,0.00e-0
1663695745,C;S;V;F,16.3,0x00c000,,0.00e-0
1663695746,C;S;V;F,16.2,0x00c000,-36.3,0.00e-0
1663695747,C;S;V;F,16.5,0x00c000,-35.6,0.00e-0
1663695748,C;S;V;F,16.6,0x00c000,-35.6,0.00e-0
1663695749,C;S;V;F,16.5,0x00c000,-35.6,0.00e-0
1663695750,C;S;V;F,16.2,0x00c000,-36.1,0.00e-0
1663695751,C;S;V;F,16.1,0x00c000,-36.0,0.00e-0
1663695752,,16.0,0x00c000,-36.2,
1663695753,C;S;V;F,16.0,0x00c000,-36.2,0.00e-0
1663695754,C;S;V;F,16.3,0x00c000,-35.7,0.00e-0
1663695755,C;S;V;F,,0x00c000,-35.7,0.00e-0
1663695756,C;S;V;F,16.2,0x00c000,-36.9,0.00e-0
1663695757,C;S;V;F,15.4,0x00c000,,0.00e-0
1663695758,C;S;V;F,15.0,0x00c000,-37.4,0.00e-0
1663695759,C;S;V;F,15.3,0x00c000,-36.9,0.00e-0
1663695760,C;S;V;F,15.5,0x00c000,-36.4,0.00e-0
1663695761,C;S;V;F,15.7,0x00c000,-36.1,0.00e-0
1663695762,C;S;V;F,15.5,0x00c000,-36.5,0.00e-0
1663695763,C;S;V;F,15.1,0x00c000,-37.2,0.00e-0
1663695764,C;S;V;F,14.7,0x00c000,-37.4,0.00e-0
1663695765,C;S;V;F,15.0,0x00c000,-36.9,0.00e-0
1663695766,,15.5,0x00c000,-36.3,
1663695767,C;S;V;F,15.6,0x00c000,-36.2,0.00e-0
1663695768,C;S;V;F,,0x00c000,-36.7,0.00e-0
1663695769,C;S;V;F,15.6,0x00c000,-36.5,0.00e-0
1663695770,C;S;V;F,15.3,0x00c000,-35.8,0.00e-0
1663695771,C;S;V;F,15.5,0x00c000,,0.00e-0
1663695772,C;S;V;F,16.2,0x00c000,-35.8,0.00e-0
1663695773,C;S;V;F,15.8,0x00c000,-36.3,0.00e-0
1663695774,C;S;V;F,16.1,0x00c000,-36.1,0.00e-0
1663695775,C;S;V;F,15.9,0x00c000,-36.1,0.00e-0
1663695776,C;S;V;F,16.4,0x00c000,-35.6,0.00e-0
1663695777,C;S;V;F,16.6,0x00c000,-35.2,0.00e-0
1663695778,C;S;V;F,16.4,0x00c000,-35.7,0.00e-0
1663695779,C;S;V;F,16.1,0x00c000,-36.0,0.00e-0
1663695780,C;S;V;F,16.7,0x00c000,-35.2,
1663695781,,17.4,0x00c000,-34.7,0.00e-0
1663695782,C;S;V;F,17.4,0x00c000,-34.7,0.00e-0
1663695783,C;S;V;F,16.7,0x00c000,-35.5,0.00e-0
1663695784,C;S;V;F,17.1,0x00c000,-35.3,0.00e-0
1663695785,C;S;V;F,,0x00c000,-34.1,0.00e-0
1663695786,C;S;V;F,17.7,0x00c000,,0.00e-0
1663695787,C;S;V;F,18.1,0x00c000,-33.7,0.00e-0
1663695788,C;S;V;F,18.0,0x00c000,-34.2,0.00e-0
1663695789,C;S;V;F,17.5,0x00c000,-34.8,0.00e-0
1663695791,,17.7,0x00c000,-33.9,
1663695792,C;S;V;F,17.5,0x00c000,-34.9,0.00e-0
1663695793,C;S;V;F,16.9,0x00c000,-35.4,0.00e-0
1663695794,C;S;V;F,17.1,0x00c000,-34.6,0.00e-0
1663695795,C;S;V;F,,0x00c000,-34.4,0.00e-0
1663695796,C;S;V;F,17.5,0x00c000,,0.00e-0
1663695797,C;S;V;F,17.3,0x00c000,-35.5,0.00e-0
1663695798,C;S;V;F,16.5,0x00c000,-35.7,0.00e-0
1663695799,C;S;V;F,17.3,0x00c000,-34.3,0.00e-0
1663695800,C;S;V;F,17.4,0x00c000,-35.0,0.00e-0
1663695801,C;S;V;F,16.7,0x00c000,-36.2,0.00e-0
1663695802,C;S;V;F,16.4,0x00c000,-35.4,0.00e-0
1663695803,C;S;V;F,17.3,0x00c000,-34.8,0.00e-0
1663695804,C;S;V;F,16.8,0x00c000,-35.6,0.00e-0
1663695805,C;S;V;F,16.2,0x00c000,-36.1,0.00e-0
1663695806,C;S;V;F,16.4,0x00c000,-35.1,0.00e-0
1663695807,C;S;V;F,16.9,0x00c000,-35.6,0.00e-0
1663695808,C;S;V;F,16.1,0x00c000,-36.6,0.00e-0
1663695809,C;S;V;F,15.9,0x00c000,-36.7,
1663695810,,15.9,0x00c000,-35.7,0.00e-0
1663695811,C;S;V;F,16.3,0x00c000,-36.5,0.00e-0
1663695812,C;S;V;F,15.7,0x00c000,-37.0,0.00e-0
1663695813,C;S;V;F,16.2,0x00c000,-36.1,0.00e-0
1663695814,C;S;V;F,,0x00c000,-36.4,0.00e-0
1663695815,C;S;V;F,15.9,0x00c000,,0.00e-0
1663695816,C;S;V;F,15.3,0x00c000,-37.1,0.00e-0
1663695817,C;S;V;F,16.0,0x00c000,-36.4,0.00e-0
1663695818,C;S;V;F,16.3,0x00c000,-36.4,0.00e-0
1663695819,C;S;V;F,15.6,0x00c000,-37.1,0.00e-0
1663695820,C;S;V;F,15.7,0x00c000,-36.8,0.00e-0
1663695821,C;S;V;F,16.6,0x00c000,-35.6,0.00e-0
1663695822,C;S;V;F,16.5,0x00c000,-36.2,0.00e-0
1663695823,C;S;V;F,15.9,0x00c000,-36.9,0.00e-0
1663695824,C;S;V;F,16.1,0x00c000,-36.3,
1663695825,,16.5,0x00c000,-36.1,0.00e-0
1663695826,C;S;V;F,16.1,0x00c000,-37.0,0.00e-0
1663695827,C;S;V;F,,0x00c000,-37.0,0.00e-0
1663695828,C;S;V;F,15.6,0x00c000,,0.00e-0
1663695829,C;S;V;F,15.9,0x00c000,-36.4,0.00e-0
1663695830,C;S;V;F,16.1,0x00c000,-36.7,0.00e-0
1663695831,C;S;V;F,15.7,0x00c000,-36.8,0.00e-0
1663695832,C;S;V;F,15.9,0x00c000,-36.7,0.00e-0
1663695833,C;S;V;F,16.0,0x00c000,-36.7,0.00e-0
1663695834,C;S;V;F,16.0,0x00c000,-36.7,0.00e-0
1663695835,C;S;V;F,16.4,0x00c000,-36.3,0.00e-0
1663695836,C;S;V;F,16.4,0x00c000,-36.3,0.00e-0
1663695837,C;S;V;F,16.0,0x00c000,-37.1,
1663695838,,15.8,0x00c000,-37.0,0.00e-0
1663695839,C;S;V;F,15.9,0x00c000,-36.8,0.00e-0
1663695840,C;S;V;F,15.8,0x00c000,-37.1,0.00e-0
1663695841,C;S;V;F,15.6,0x00c000,-37.1,0.00e-0
1663695842,C;S;V;F,,0x00c000,-36.9,0.00e-0
1663695843,C;S;V;F,15.8,0x00c000,-36.5,0.00e-0
1663695844,C;S;V;F,16.1,0x00c000,,0.00e-0
1663695845,C;S;V;F,16.2,0x00c000,-36.5,0.00e-0
1663695846,C;S;V;F,16.3,0x00c000,-36.7,0.00e-0
1663695847,C;S;V;F,16.4,0x00c000,-36.1,0.00e-0
1663695848,C;S;V;F,16.7,0x00c000,-36.0,0.00e-0
1663695849,C;S;V;F,16.7,0x00c000,-36.3,0.00e-0
1663695850,C;S;V;F,16.4,0x00c000,-36.4,0.00e-0
1663695851,C;S;V;F,16.4,0x00c000,-36.3,0.00e-0
1663695853,C;S;V;F,16.6,0x00c000,-36.2,0.00e-0
1663695857,,17.0,0x00c000,-35.6,
1663695858,C;S;V;F,17.0,0x00c000,-35.3,0.00e-0
1663695859,C;S;V;F,,0x00c000,-34.9,0.00e-0
1663695860,C;S;V;F,17.2,0x00c000,,0.00e-0
1663695861,C;S;V;F,17.1,0x00c000,-35.1,0.00e-0
1663695862,C;S;V;F,17.4,0x00c000,-35.1,0.00e-0
1663695863,C;S;V;F,17.6,0x00c000,-34.8,0.00e-0
1663695864,C;S;V;F,17.5,0x00c000,-34.7,0.00e-0
1663695865,C;S;V;F,17.5,0x00c000,-34.8,0.00e-0
1663695866,C;S;V;F,17.4,0x00c000,-34.8,0.00e-0
1663695867,C;S;V;F,17.7,0x00c000,-34.7,0.00e-0
1663695868,C;S;V;F,17.8,0x00c000,-34.6,0.00e-0
1663695869,C;S;V;F,18.0,0x00c000,-34.3,0.00e-0
1663695870,C;S;V;F,18.1,0x00c000,-34.0,
1663695871,,18.3,0x00c000,-34.0,0.00e-0
1663695872,C;S;V;F,18.0,0x00c000,-34.3,0.00e-0
1663695873,C;S;V;F,,0x00c000,-34.0,0.00e-0
1663695874,C;S;V;F,18.2,0x00c000,,0.00e-0
1663695875,C;S;V;F,18.1,0x00c000,-34.1,0.00e-0
1663695876,C;S;V;F,18.0,0x00c000,-34.0,0.00e-0
1663695877,C;S;V;F,18.3,0x00c000,-33.9,0.00e-0
1663695878,C;S;V;F,18.1,0x00c000,-34.0,0.00e-0
1663695879,C;S;V;F,18.0,0x00c000,-34.2,0.00e-0
1663695880,C;S;V;F,18.0,0x00c000,-34.0,0.00e-0
1663695881,C;S;V;F,18.0,0x00c000,-34.0,0.00e-0
1663695882,C;S;V;F,18.3,0x00c000,-33.9,0.00e-0
1663695883,C;S;V;F,18.0,0x00c000,-34.1,
1663695884,,17.9,0x00c000,-34.3,0.00e-0
1663695885,C;S;V;F,18.0,0x00c000,-34.4,0.00e-0
1663695886,C;S;V;F,18.1,0x00c000,-34.4,0.00e-0
1663695887,C;S;V;F,,0x00c000,-34.5,0.00e-0
1663695888,C;S;V;F,18.1,0x00c000,,0.00e-0
1663695889,C;S;V;F,18.0,0x00c000,-34.7,0.00e-0
1663695890,C;S;V;F,17.8,0x00c000,-34.7,0.00e-0
1663695891,C;S;V;F,17.7,0x00c000,-34.6,0.00e-0
1663695892,C;S;V;F,17.9,0x00c000,-34.7,0.00e-0
1663695893,C;S;V;F,17.6,0x00c000,-34.8,0.00e-0
1663695894,C;S;V;F,17.8,0x00c000,-34.8,0.00e-0
1663695895,C;S;V;F,17.4,0x00c000,-35.0,0.00e-0
1663695896,C;S;V;F,17.4,0x00c000,-35.0,
1663695897,,17.5,0x00c000,-34.9,0.00e-0
1663695898,C;S;V;F,17.5,0x00c000,-35.1,0.00e-0
1663695899,C;S;V;F,17.4,0x00c000,-35.2,0.00e-0
1663695900,C;S;V;F,,0x00c000,-35.3,0.00e-0
1663695901,C;S;V;F,17.1,0x00c000,,0.00e-0
1663695902,C;S;V;F,17.2,0x00c000,-35.1,0.00e-0
1663695903,C;S;V;F,16.9,0x00c000,-35.4,0.00e-0
1663695904,C;S;V;F,17.1,0x00c000,-35.6,0.00e-0
1663695905,C;S;V;F,17.0,0x00c000,-35.6,0.00e-0
1663695906,C;S;V;F,16.9,0x00c000,-35.6,0.00e-0
1663695907,C;S;V;F,16.9,0x00c000,-36.2,0.00e-0
1663695908,C;S;V;F,16.6,0x00c000,-35.7,0.00e-0
1663695909,C;S;V;F,16.4,0x00c000,-36.6,
1663695910,,16.5,0x00c000,-36.4,0.00e-0
1663695911,C;S;V;F,16.4,0x00c000,-36.3,0.00e-0
1663695912,C;S;V;F,16.3,0x00c000,-36.4,0.00e-0
1663695913,C;S;V;F,,0x00c000,-36.5,0.00e-0
1663695914,C;S;V;F,16.2,0x00c000,,0.00e-0
1663695916,C;S;V;F,16.0,0x00c000,-36.8,0.00e-0
1663695917,C;S;V;F,16.4,0x00c000,-36.4,0.00e-0
1663695918,C;S;V;F,16.4,0x00c000,-36.5,0.00e-0
1663695919,C;S;V;F,16.0,0x00c000,-36.7,0.00e-0
1663695920,C;S;V;F,15.9,0x00c000,-36.9,0.00e-0
1663695921,C;S;V;F,15.6,0x00c000,-36.8,0.00e-0
1663695922,C;S;V;F,15.8,0x00c000,-37.1,
1663695923,,16.0,0x00c000,-36.6,0.00e-0
1663695924,C;S;V;F,15.9,0x00c000,-36.8,0.00e-0
1663695925,C;S;V;F,16.1,0x00c000,-36.8,0.00e-0
1663695926,C;S;V;F,,0x00c000,-36.7,0.00e-0
1663695927,C;S;V;F,16.1,0x00c000,,0.00e-0
1663695928,C;S;V;F,16.0,0x00c000,-36.7,0.00e-0
1663695929,C;S;V;F,16.4,0x00c000,-36.4,0.00e-0
1663695930,C;S;V;F,15.9,0x00c000,-36.7,0.00e-0
1663695931,,15.9,0x00c000,-36.8,
1663695932,C;S;V;F,15.9,0x00c000,-37.0,0.00e-0
1663695933,C;S;V;F,15.8,0x00c000,-36.8,0.00e-0
1663695934,C;S;V;F,,0x00c000,-37.1,0.00e-0
1663695935,C;S;V;F,15.8,0x00c000,,0.00e-0
1663695936,C;S;V;F,15.9,0x00c000,-36.7,0.00e-0
1663695937,C;S;V;F,16.0,0x00c000,-36.8,0.00e-0
1663695938,C;S;V;F,16.3,0x00c000,-36.5,0.00e-0
1663695939,C;S;V;F,16.2,0x00c000,-36.6,0.00e-0
1663695940,C;S;V;F,16.2,0x00c000,-36.9,0.00e-0
1663695941,C;S;V;F,15.8,0x00c000,-37.1,0.00e-0
1663695942,C;S;V;F,15.9,0x00c000,-36.6,0.00e-0
1663695943,C;S;V;F,16.2,0x00c000,-36.4,0.00e-0
1663695944,C;S;V;F,16.1,0x00c000,-36.7,0.00e-0
1663695945,,16.5,0x00c000,-36.2,
1663695946,C;S;V;F,16.4,0x00c000,-36.3,0.00e-0
1663695947,C;S;V;F,,0x00c000,-36.1,0.00e-0
1663695948,C;S;V;F,16.6,0x00c000,,0.00e-0
1663695949,C;S;V;F,16.7,0x00c000,-36.0,0.00e-0
1663695950,C;S;V;F,16.7,0x00c000,-36.1,0.00e-0
1663695951,C;S;V;F,16.5,0x00c000,-36.0,0.00e-0
1663695952,C;S;V;F,16.7,0x00c000,-35.9,0.00e-0
1663695953,C;S;V;F,16.9,0x00c000,-35.9,0.00e-0
1663695954,C;S;V;F,17.0,0x00c000,-35.5,0.00e-0
1663695955,C;S;V;F,17.1,0x00c000,-35.6,0.00e-0
1663695956,C;S;V;F,16.9,0x00c000,-35.4,0.00e-0
1663695957,,17.1,0x00c000,-35.3,
1663695958,C;S;V;F,17.2,0x00c000,-35.3,0.00e-0
1663695959,C;S;V;F,16.9,0x00c000,-35.5,0.00e-0
1663695960,C;S;V;F,17.1,0x00c000,-35.2,0.00e-0
1663695961,C;S;V;F,17.1,0x00c000,-35.2,0.00e-0
1663695962,C;S;V;F,,0x00c000,-35.2,0.00e-0
1663695963,C;S;V;F,17.3,0x00c000,-35.1,0.00e-0
1663695964,C;S;V;F,17.3,0x00c000,,0.00e-0
1663695965,C;S;V;F,17.2,0x00c000,-35.0,0.00e-0
1663695966,C;S;V;F,17.4,0x00c000,-35.1,0.00e-0
1663695967,C;S;V;F,17.3,0x00c000,-35.1,0.00e-0
1663695968,C;S;V;F,17.1,0x00c000,-35.3,0.00e-0
1663695969,C;S;V;F,17.1,0x00c000,-35.4,0.00e-0
1663695970,C;S;V;F,17.1,0x00c000,-35.3,0.00e-0
1663695971,C;S;V;F,17.1,0x00c000,-35.5,0.00e-0
1663695972,C;S;V;F,16.9,0x00c000,-35.5,0.00e-0
1663695973,C;S;V;F,17.0,0x00c000,-35.3,
1663695974,C;S;V;F,17.1,0x00c000,-35.3,0.00e-0
1663695975,,17.3,0x00c000,-35.1,0.00e-0
1663695976,C;S;V;F,17.2,0x00c000,-35.0,0.00e-0
1663695977,C;S;V;F,,0x00c000,,0.00e-0
1663695978,,17.5,0x00c000,-34.9,
1663695979,C;S;V;F,,0x00c000,-34.7,0.00e-0
1663695980,C;S;V;F,17.4,0x00c000,,0.00e-0
1663695981,C;S;V;F,17.8,0x00c000,-34.7,0.00e-0
1663695982,C;S;V;F,17.8,0x00c000,-34.7,0.00e-0
1663695983,C;S;V;F,17.4,0x00c000,-34.7,0.00e-0
1663695984,C;S;V;F,17.7,0x00c000,-34.5,0.00e-0
1663695985,C;S;V;F,17.9,0x00c000,-34.5,0.00e-0
1663695986,C;S;V;F,17.7,0x00c000,-34.4,0.00e-0
1663695987,C;S;V;F,17.9,0x00c000,-34.3,0.00e-0
1663695988,C;S;V;F,17.6,0x00c000,-34.4,0.00e-0
1663695989,C;S;V;F,17.6,0x00c000,-34.5,0.00e-0
1663695990,,17.7,0x00c000,-34.6,
1663695991,C;S;V;F,17.4,0x00c000,-34.4,0.00e-0
1663695992,C;S;V;F,17.7,0x00c000,-34.1,0.00e-0
1663695993,C;S;V;F,,0x00c000,-33.9,0.00e-0
1663695994,C;S;V;F,17.7,0x00c000,,0.00e-0
1663695995,C;S;V;F,17.8,0x00c000,-34.0,0.00e-0
1663695996,C;S;V;F,17.9,0x00c000,-34.1,0.00e-0
1663695997,C;S;V;F,18.0,0x00c000,-34.0,0.00e-0
1663695998,C;S;V;F,18.0,0x00c000,-34.1,0.00e-0
1663695999,C;S;V;F,18.0,0x00c000,-34.0,0.00e-0
1663696000,C;S;V;F,18.0,0x00c000,-34.2,0.00e-0
1663696001,C;S;V;F,18.0,0x00c000,-34.0,0.00e-0
1663696002,C;S;V;F,17.9,0x00c000,-34.3,0.00e-0
1663696003,C;S;V;F,17.9,0x00c000,-34.0,0.00e-0
1663696004,C;S;V;F,17.8,0x00c000,-34.0,
1663696005,,18.1,0x00c000,-34.2,0.00e-0
1663696006,C;S;V;F,18.1,0x00c000,-34.0,0.00e-0
1663696007,C;S;V;F,18.1,0x00c000,-34.0,0.00e-0
1663696008,C;S;V;F,,0x00c000,-34.1,0.00e-0
1663696009,C;S;V;F,17.9,0x00c000,,0.00e-0
1663696010,C;S;V;F,17.9,0x00c000,-34.0,0.00e-0
1663696011,C;S;V;F,18.0,0x00c000,-34.1,0.00e-0
1663696012,C;S;V;F,17.8,0x00c000,-34.1,0.00e-0
1663696013,C;S;V;F,17.8,0x00c000,-34.3,0.00e-0
1663696014,C;S;V;F,17.8,0x00c000,-34.4,0.00e-0
1663696015,C;S;V;F,17.6,0x00c000,-34.1,0.00e-0
1663696016,C;S;V;F,17.7,0x00c000,-34.4,0.00e-0
1663696017,C;S;V;F,17.6,0x00c000,-34.2,0.00e-0
1663696018,C;S;V;F,18.0,0x00c000,-34.2,0.00e-0
1663696019,C;S;V;F,17.6,0x00c000,-34.7,
1663696020,,17.5,0x00c000,-34.8,0.00e-0
1663696021,C;S;V;F,,0x00c000,-34.7,0.00e-0
1663696022,C;S;V;F,17.4,0x00c000,,0.00e-0
1663696023,C;S;V;F,17.4,0x00c000,-34.6,0.00e-0
1663696024,C;S;V;F,17.5,0x00c000,-34.6,0.00e-0
1663696025,C;S;V;F,17.6,0x00c000,-34.7,0.00e-0
1663696026,C;S;V;F,17.7,0x00c000,-34.5,0.00e-0
1663696027,C;S;V;F,17.3,0x00c000,-34.8,
1663696028,,17.4,0x00c000,-34.8,0.00e-0
1663696029,C;S;V;F,17.3,0x00c000,-35.0,0.00e-0
1663696030,C;S;V;F,17.2,0x00c000,-35.2,0.00e-0
1663696031,C;S;V;F,,0x00c000,-35.4,0.00e-0
1663696032,C;S;V;F,16.9,0x00c000,-35.5,0.00e-0
1663696033,C;S;V;F,17.2,0x00c000,-35.6,0.00e-0
1663696034,C;S;V;F,16.8,0x00c000,,0.00e-0
1663696035,C;S;V;F,16.7,0x00c000,-35.6,0.00e-0
1663696036,C;S;V;F,16.7,0x00c000,-35.6,0.00e-0
1663696037,C;S;V;F,16.8,0x00c000,-35.6,0.00e-0
1663696038,C;S;V;F,16.9,0x00c000,-35.6,0.00e-0
1663696039,C;S;V;F,16.8,0x00c000,-35.5,0.00e-0
1663696041,C;S;V;F,16.9,0x00c000,-35.6,0.00e-0
1663696042,,16.9,0x00c000,-35.4,
1663696043,C;S;V;F,16.9,0x00c000,-35.9,0.00e-0
1663696044,C;S;V;F,,0x00c000,-35.5,0.00e-0
1663696045,C;S;V;F,16.7,0x00c000,-35.5,0.00e-0
1663696046,C;S;V;F,16.9,0x00c000,,0.00e-0
1663696047,C;S;V;F,16.7,0x00c000,-35.5,0.00e-0
1663696048,C;S;V;F,16.8,0x00c000,-35.5,0.00e-0
1663696049,C;S;V;F,16.8,0x00c000,-35.6,0.00e-0
1663696050,C;S;V;F,16.8,0x00c000,-35.7,0.00e-0
1663696051,C;S;V;F,16.6,0x00c000,-35.8,0.00e-0
1663696052,C;S;V;F,16.6,0x00c000,-35.8,
1663696053,,16.4,0x00c000,-35.8,0.00e-0
1663696054,C;S;V;F,16.5,0x00c000,-35.9,0.00e-0
1663696055,C;S;V;F,,0x00c000,-36.3,0.00e-0
1663696056,C;S;V;F,16.3,0x00c000,,0.00e-0
1663696057,C;S;V;F,16.1,0x00c000,-36.3,0.00e-0
1663696058,C;S;V;F,16.3,0x00c000,-36.4,0.00e-0
1663696059,C;S;V;F,16.1,0x00c000,-36.2,0.00e-0
1663696060,C;S;V;F,16.2,0x00c000,-36.2,0.00e-0
1663696061,C;S;V;F,16.1,0x00c000,-36.0,0.00e-0
1663696062,C;S;V;F,16.1,0x00c000,-36.3,0.00e-0
1663696063,C;S;V;F,16.1,0x00c000,-36.3,
1663696064,,15.9,0x00c000,-36.4,0.00e-0
1663696065,C;S;V;F,16.2,0x00c000,-36.4,0.00e-0
1663696066,C;S;V;F,16.1,0x00c000,-36.3,0.00e-0
1663696067,C;S;V;F,,0x00c000,-36.4,0.00e-0
1663696068,C;S;V;F,15.8,0x00c000,-36.4,0.00e-0
1663696069,C;S;V;F,15.9,0x00c000,,0.00e-0
1663696070,C;S;V;F,15.9,0x00c000,-36.3,0.00e-0
1663696071,C;S;V;F,16.0,0x00c000,-36.3,0.00e-0
1663696072,C;S;V;F,15.6,0x00c000,-36.4,0.00e-0
1663696073,C;S;V;F,15.7,0x00c000,-36.4,0.00e-0